Погода в Курдамире

Погода в Курдамире : погода сейчас, прогноз погоды и архив. Всё, что Вы хотите узнать о погоде в Курдамире!

Поиск расширенной информации на нашем сайте:

Другие новости

Новости СМИ2

Главная страница сайта

Новости сайта

03.07.2017

Напоминаем, что на нашем специализированном сайте Метеоцентр.Азия вы можете получить высокодетализированные автоматические прогнозы погоды по пунктам России, СНГ и мира в авиационном формате (включающие направление и скорость ветра, видимость, явления погоды, количество и форму облачности, нижнюю и верхнюю границу облачности).


Погода в Курдамире - сегодня

Время (UTC), дата Ветер
(°,м/с) 
Видим.   Явления Облачность Т
(°С)
Тd
(°С)
f(%) Тe
(°С)
Pmin
(гПа)
dP
(гПа)
Po
(мм)
O2
(г/м3)
Тmin Tmax R s Состояние
почвы
03 15.11.18 270 (З) 20000 м    10/10 600 м 
[Sc]
+7.1 +6.4 95 +8  1021.9  -0.3  766  300           
06 15.11.18 тихо ()   20000 м    10/10 600 м 
[Sc]
+7.8 +6.5 91 +8  1022.6  0.7  767  299  +6.8    0.1     
09 15.11.18 330 (СЗ) 20000 м    10/10 600 м 
[Sc]
+9.5 +7.4 87 +11  1021.7  -0.9  766  297           
12 15.11.18 110 (В) 10 км  слаб. дождь  10/10 300 м 
[Frnb|Ns]
+10.9 +9.5 91 +11  1020.6  -1.1  765  295           
15 15.11.18 070 (В) 10 км    10/10 300 м 
[Frnb|Ns]
+10.6 +10.1 97 +11  1021.1  0.5  765  295           
18 15.11.18 120 (ЮВ) 10 км  слаб. дождь  10/10 300 м 
[Frnb|Ns]
+10.9 +10.5 97 +12  1021.1  765  295    +11.3     
21 15.11.18 120 (ЮВ) 10 км  слаб. дождь  10/10 300 м 
[Frnb|Ns]
+10.4 +10.1 98 +12  1020.5  -0.5  765  295           
00 16.11.18 190 (Ю) 10 км  слаб. дождь  10/10 300 м 
[Frnb|Ns]
+10.7 +10.3 97 +13  1020.2  -0.3  765  295           
03 16.11.18 250 (З) 10 км  слаб. дождь  10/10 300 м 
[Frnb|Ns]
+10.4 +10.1 98 +13  1020.3  0.1  765  295           
06 16.11.18 тихо ()   10 км  слаб. дождь  10/10 300 м 
[Frnb|Ns]
+11.1 +10.7 97 +13  1021.7  1.4  766  295  +10.3       
09 16.11.18 тихо ()   20000 м  {дождь}  10/10 600 м 
[Sc]
+11.3 +10.9 97 +13  1020.9  -0.8  765  294           
12 16.11.18 240 (ЮЗ) 20000 м  {дождь}  10/10 600 м 
[Sc]
+11.9 +11.5 97 +15  1020.8  -0.1  765  293           
15 16.11.18 тихо ()   20000 м    10/10 600 м 
[Sc]
+11.5 +11.1 97 +14  1021.9  1.1  766  294           
18 16.11.18 тихо ()   20000 м    10/10 600 м 
[Sc]
+10.8 +10.4 97 +12  1023.4  1.5  767  295    +12.3  0.8     
21 16.11.18 тихо ()   20000 м    10/10 600 м 
[Sc]
+10.6 +10.2 97 +12  1022.8  -0.6  767  296           
00 17.11.18 210 (ЮЗ) 20000 м    10/10 600 м 
[Sc]
+10.2 +9.8 97 +11  1022.4  -0.4  766  296           
03 17.11.18 330 (СЗ) 20000 м    10/10 600 м 
[Sc]
+10 +9.8 99 +11  1022.9  0.5  767  296           
06 17.11.18 240 (ЮЗ) 4000 м  слаб. морось  10/10 300 м 
[St]
+10.6 +10.2 97 +12  1023.6  0.7  767  296  +9.9         
09 17.11.18 тихо ()   4000 м  слаб. морось  10/10 300 м 
[St]
+11.6 +10.9 95 +14  1022.9  -0.7  767  294           
12 17.11.18 270 (З) 20000 м  {морось}  9/6 600 м средняя 
[Sc|Ac trans]
+14 +11.5 85 +17  1021.4  -1.5  766  291           
15 17.11.18 240 (ЮЗ) 20000 м    8/5 600 м средняя 
[Sc|Ac trans]
+12.3 +10.7 90 +15  1022.3  0.9  766  294           
21 17.11.18 330 (СЗ) 20000 м    6/4 600 м средняя 
[Sc|Ac trans]
+7.5 +5.3 86 +8  1023.1  0.1  767  300           
00 18.11.18 080 (В) 20000 м    ясно 
+6.8 +4.7 86 +7  1023.3  0.2  767  301           
03 18.11.18 320 (СЗ) 20000 м    6/4 600 м средняя 
[Sc|Ac trans]
+6.6 +4.5 86 +8  1023.6  0.3  767  301           
09 18.11.18 080 (В) 20000 м    8/5 600 м средняя, верхняя 
[Ac trans|Ci fib]
+11.8 +7.7 76 +12  1023.1  -1.5  767  295           
Время (UTC), дата Ветер
(°,м/с) 
Видим.   Явления Облачность Т
(°С)
Тd
(°С)
f(%) Тe
(°С)
Pmin
(гПа)
dP
(гПа)
Po
(мм)
O2
(г/м3)
Тmin Tmax R s Состояние
почвы

Для получения пояснительной информации подведите курсор к названию столбца.

ПОГОДА в Курдамире - архив

Всё, что Вы хотите узнать о погоде в Курдамире - удобно и подробно!

Выберите нужную дату (начиная с 1 января 2015* года) и нажмите кнопку "Найти".
Будут отображены архивные сводки погоды по пункту Курдамир, начиная с указанной даты.


Отображать данные в формате CSV (для использования в таблицах Excel)


Внимание! Наш архив погоды предназначен исключительно для личного некоммерческого использования в познавательных целях. Если Вам необходимы официальные справки о состоянии погоды (для производственных, юридических, коммерческих и т.п. целей), обращайтесь в органы Росгидромета.

*Примечание: данная дата относится к архиву по метеостанциям СССР (Россия, СНГ, Балтия).
Архив по метеостанциям Зарубежной Европы и Азии (кроме Китая) хранится 10 дней, по другим регионам земного шара (Китай, Африка, Америка, Австралия, Океания) - 1 день.

Курдамир - район местоположения метеостанции


Название, широта, долгота, высота метеостанции:
Курдамир 40.3°ш. 48.2°д. 4 м над ур. моря [Азербайджан]

Дополнительная информация

В oтличие oт бoльшинства пoгoдных сайтoв мы публикуем пoдрoбную метеoинфoрмацию в детальнoм прoфессиoнальнoм фoрмате.

Характеристики температуры и влажнoсти вoздуха измеряются на высoте 2 м в тени вдали oт зданий и деревьев.
Скoрoсть ветра измеряется на высoте 10 м (на урoвне рoста челoвека скoрoсть ветра ниже в 1.5-2 раза). Если метеoстанция нахoдится в гoрoде или в лесу, тo скoрoсть ветра занижена на 2-4 м/с пo сравнению с oткрытым местoм. Скoрoсть ветра над акватoриями крупных рек и oзёр, а также на вершинах хoлмoв на 2-5 м/с выше, чем в oбычных услoвиях.
Атмoсфернoе давление в разных тoчках местнoсти мoжет значительнo oтличаться oт давления на метеoстанции, в зависимoсти oт услoвий рельефа (при пoдъёме на 10 м давление пoнижается примернo на 1 мм рт.ст.).